Location: Freiburg+im+Breisgau
(48.0359°N, 7.8195°E)
Time: 07:25:49
(UTC+02:00)

ISS - Visible Passes

Search period start: 29 March 2017 00:00
Search period end: 08 April 2017 00:00
Orbit: 399 x 409 km, 51.6° (Epoch: 29 March)

Date Brightness Start Highest point End Pass type
(mag) Time Alt. Az. Time Alt. Az. Time Alt. Az.
29 Mar -4.0 21:41:36 10° WSW 21:44:52 75° SSE 21:45:05 70° ESE visible
30 Mar -3.5 20:49:24 10° SW 20:52:32 46° SSE 20:55:20 13° ENE visible
30 Mar -2.2 22:25:48 10° W 22:28:00 35° WNW 22:28:00 35° WNW visible
31 Mar -3.6 21:33:18 10° WSW 21:36:33 67° NNW 21:38:02 29° ENE visible
31 Mar -0.7 23:10:11 10° WNW 23:10:43 14° WNW 23:10:43 14° WNW visible
01 Apr -3.9 20:40:52 10° WSW 20:44:07 85° SSE 20:47:25 10° ENE visible
01 Apr -2.7 22:17:40 10° WNW 22:20:37 42° NNW 22:20:37 42° NNW visible
02 Apr -3.0 21:25:06 10° W 21:28:17 48° N 21:30:24 19° ENE visible
02 Apr -1.1 23:01:55 10° WNW 23:03:04 19° WNW 23:03:04 19° WNW visible
03 Apr -3.4 20:32:32 10° W 20:35:46 61° NNW 20:39:01 10° ENE visible
03 Apr -2.9 22:09:25 10° WNW 22:12:34 42° N 22:12:46 42° NNE visible
04 Apr -2.8 21:16:52 10° WNW 21:20:00 42° N 21:22:25 15° ENE visible
04 Apr -1.6 22:53:30 10° WNW 22:55:04 25° WNW 22:55:04 25° WNW visible
05 Apr -3.3 22:01:02 10° WNW 22:04:15 50° NNE 22:04:40 46° NE visible
06 Apr -2.9 21:08:31 10° WNW 21:11:41 43° N 21:14:15 14° ENE visible
06 Apr -2.0 22:45:02 10° WNW 22:46:54 31° WNW 22:46:54 31° WNW visible
07 Apr -3.8 21:52:33 10° WNW 21:55:50 72° NNE 21:56:28 52° E visible
